Retour au catalogue

THOR ABLESTAR DEB

ActifLEO
NORAD 403·DEBRIS·🇺🇸 United States

Lancé Jun 29, 1961 depuis Cape Canaveral Space Force Station

Loading…

Prochains Passages (prochaines 24 heures)

TLE

FraisSource: Space-Track

Époque: Sep 14, 2026, 11:18 UTC

1 00403U 61015EC  26257.47143541 -.00000023  00000-0  48052-4 0  9990
2 00403  66.8400  72.1060 0015901 127.6454 260.5056 13.81247771283484

Suivez THOR ABLESTAR DEB en temps réel avec AllMySat

Download on the App Store